Simultaneous Nadir Overpasses (SNOs) Predictions

Prediction of SNOs between GOES-17 and NOAA-20 Satellite Orbit:

Table of predicted SNOs for the next 14.0 days since TLE Epoch: 12/5/2025
Index Date Time (GOES-17) GOES-17 Lat,Lon NOAA-20 Lat,Lon Distance(km) Time Diff (sec)
1 12/05/2025 19:12:01 -0.05, -89.50 0.47, -87.07 275.74 80
2 12/07/2025 07:36:30 0.11, -89.50 0.73, -92.34 323.00 80
3 12/08/2025 07:15:08 0.08, -89.50 -0.32, -87.82 191.99 80
4 12/09/2025 19:39:45 -0.13, -89.50 -0.97, -93.11 412.47 80
5 12/10/2025 19:18:23 -0.10, -89.50 0.09, -88.59 103.72 80
6 12/12/2025 07:42:51 0.16, -89.53 1.16, -93.85 492.47 80
7 12/13/2025 07:21:28 0.13, -89.54 0.10, -89.33 23.55 80
8 12/15/2025 19:27:23 -0.16, -89.55 -0.30, -90.10 63.76 80
9 12/16/2025 19:06:01 -0.13, -89.56 0.77, -85.59 453.08 80
10 12/18/2025 07:30:29 0.19, -89.59 0.47, -90.84 142.09 80
